sat.trackr.live / text

‹ back to catalog

STARLINK-1577

NORAD 46063 · 2020-055AN

PAYLOAD ACTIVE UNKNOWN

§ Identity

Operator
Country
US
Launch date
2020-08-07
Launch site
AFETR
Launch vehicle
Mass (kg)
RCS (m²)

Purposes: comms

External: N2YO · Heavens-Above · Gunter

§ Orbital elements

Epoch: 2026-09-19T19:31:42.622464Z

Period
94.01 min
Inclination
53.1580°
Eccentricity
0.0001205
Mean motion
15.31706191 rev/d
Perigee alt
469.9 km
Apogee alt
471.5 km
Semi-major
6,848.9 km
B*
1.6584e-5
RAAN
290.4603°
Arg perigee
73.3951°
Mean anomaly
286.7183°
Rev number
33,881

§ Raw data

STARLINK-15771 46063U 20055AN  26262.81368776  .00000150  00000+0  16584-4 0  99982 46063  53.1580 290.4603 0001205  73.3951 286.7183 15.31706191338815

JSON: /api/v1/satellites/46063 · /tle

For live sub-satellite position, see the globe view (requires WebGL).

§ Visibility from observer

Set your observer location to see the next 7 days of passes ≥ 10°. The values pass through the URL so the page stays shareable.

No JS? Fill the form by hand. The geolocation button needs JavaScript.